Location: Poprad
(49.0500°N, 20.3000°E)
Time: 10:47:05
(UTC+01:00)

ISS - Pass Details

Date: 25 January 2021
Orbit: 417 x 422 km, 51.6° (Epoch: 07 March)

Event Time Altitude Azimuth Distance (km) Brightness Sun altitude
Rises 17:57:45 0° 260° (W) 2,368 2.0 -15.1°
Reaches altitude 10° 17:59:52 10° 263° (W) 1,506 0.4 -15.5°
Maximum altitude 18:03:14 66° 347° (NNW) 464 -3.6 -16.0°
Enters shadow 18:04:20 38° 56° (NE) 660 -3.3 -16.2°
